User: anonymous   Login
Location: Muenchen
(48.1800°N, 11.5800°E)
Time: 13:05:32
(UTC+01:00)
Language:

ISS - Orbit

View from above orbital plane
View from above orbital plane
View from above satellite
View from above satellite

Ground track
Ground track

The orbit data is extracted from the following two-line orbital elements,

1 25544U 98067A   15028.14666544  .00010362  00000-0  16618-3 0  7908
2 25544 051.6470 063.2780 0005664 313.0690 150.3281 15.53676192926242
Epoch (UTC): 28 January 2015 03:31:11
Eccentricity: 0.0005664
inclination: 51.6470°
perigee height: 402 km
apogee height: 410 km
right ascension of ascending node: 63.2780°
argument of perigee: 313.0690°
revolutions per day: 15.53676192
mean anomaly at epoch: 150.3281°
orbit number at epoch: 92624

The dashed part of the orbit path shows where the satellite is in the earth's shadow,  

DLR